Brooksville, FL

9:36 AM EDT on April 23, 2017 (GMT -0400)
Hernando County

Weather History for KBKV - October, 2012

Change the Weather History Date:

Thursday, October 4, 2012

  Actual Average Record
Temperature  
Mean Temperature 79 °F -  
Max Temperature 91 °F 84 °F 91 °F (2007)
Min Temperature 69 °F 64 °F 51 °F (2010)
Cooling Degree Days 14    
Growing Degree Days 29 (Base 50)    
Moisture  
Dew Point 73 °F    
Average Humidity 85    
Maximum Humidity 100    
Minimum Humidity 59    
Precipitation  
Precipitation 1.61 in - - ()
Sea Level Pressure  
Sea Level Pressure 30.16 in    
Wind  
Wind Speed 6 mph (East)    
Max Wind Speed 23 mph    
Max Gust Speed 32 mph    
Visibility 9 miles    
Events Rain , Thunderstorm    
Averages and records for this station are not official NWS values.
T = Trace of Precipitation, MM = Missing Value Source: NWS Daily Summary

Daily Weather History Graph

Daily Weather History Graph

Search for Another Location

Airport or City:

Trip Planner

Search our weather history database for the weather conditions in past years. The results will help you decide how hot, cold, wet, or windy it might be!

Date:

Astronomy

Oct. 04, 2012 Rise Set
Actual Time 7:24 AM EDT 7:11 PM EDT
Civil Twilight 7:01 AM EDT 7:35 PM EDT
Nautical Twilight 6:33 AM EDT 8:02 PM EDT
Astronomical Twilight 6:06 AM EDT 8:29 PM EDT
Moon 10:08 PM EDT (10/4) 11:19 AM EDT (10/4)
Length of Visible Light 12h 34m
Length of Day
11h 47m
Waning Gibbous, 82% of the Moon is Illuminated
Oct 4
Waning Gibbous
Oct 8
Last Quarter
Oct 15
New
Oct 21
First Quarter
Oct 29
Full

Hourly Weather History & Observations

Time (EDT) Temp. Heat Index Dew Point Humidity Pressure Visibility Wind Dir Wind Speed Gust Speed Precip Events Conditions
12:08 AM 73.4 °F - 73.4 °F 100% 30.18 in 10.0 mi East 4.6 mph - N/A   Overcast
12:45 AM 73.4 °F - 73.4 °F 100% 30.18 in 10.0 mi East 4.6 mph - N/A   Scattered Clouds
12:53 AM 73.9 °F - 73.0 °F 97% 30.18 in 10.0 mi East 3.5 mph - N/A   Partly Cloudy
1:53 AM 73.0 °F - 72.0 °F 96% 30.17 in 10.0 mi East 4.6 mph - N/A   Clear
2:53 AM 73.0 °F - 72.0 °F 96% 30.16 in 10.0 mi Calm Calm - N/A   Clear
3:53 AM 73.0 °F - 72.0 °F 96% 30.14 in 10.0 mi Calm Calm - N/A   Clear
4:53 AM 73.0 °F - 72.0 °F 96% 30.14 in 10.0 mi East 4.6 mph - N/A   Clear
5:53 AM 72.0 °F - 71.1 °F 97% 30.17 in 10.0 mi North 3.5 mph - N/A   Clear
6:53 AM 73.0 °F - 72.0 °F 96% 30.18 in 10.0 mi ENE 4.6 mph - N/A   Clear
7:12 AM 71.6 °F - 71.6 °F 100% 30.19 in 10.0 mi Calm Calm - N/A   Partly Cloudy
7:53 AM 73.0 °F - 72.0 °F 96% 30.19 in 10.0 mi North 3.5 mph - N/A   Clear
8:53 AM 75.9 °F - 73.0 °F 91% 30.19 in 10.0 mi East 5.8 mph - N/A   Clear
9:53 AM 80.1 °F 85.1 °F 75.0 °F 85% 30.20 in 10.0 mi ESE 6.9 mph - N/A   Clear
10:53 AM 82.9 °F 91.8 °F 77.0 °F 82% 30.19 in 10.0 mi SE 5.8 mph - N/A   Scattered Clouds
11:06 AM 82.4 °F 90.9 °F 77.0 °F 84% 30.20 in 10.0 mi East 5.8 mph - N/A   Mostly Cloudy
11:20 AM 82.4 °F 90.9 °F 77.0 °F 84% 30.20 in 10.0 mi SE 4.6 mph - N/A   Mostly Cloudy
11:36 AM 84.2 °F 92.3 °F 75.2 °F 74% 30.20 in 10.0 mi Variable 5.8 mph - N/A   Scattered Clouds
11:53 AM 84.9 °F 94.1 °F 75.9 °F 74% 30.19 in 10.0 mi SE 3.5 mph - N/A   Mostly Cloudy
12:00 PM 86.0 °F 95.1 °F 75.2 °F 70% 30.20 in 10.0 mi South 5.8 mph - N/A   Mostly Cloudy
12:25 PM 87.8 °F 97.6 °F 75.2 °F 66% 30.20 in 10.0 mi South 4.6 mph - N/A   Scattered Clouds
12:53 PM 88.0 °F 98.5 °F 75.9 °F 67% 30.18 in 10.0 mi East 4.6 mph - N/A   Mostly Cloudy
1:00 PM 89.6 °F 99.8 °F 75.2 °F 62% 30.18 in 10.0 mi Calm Calm - N/A   Mostly Cloudy
1:09 PM 89.6 °F 99.8 °F 75.2 °F 62% 30.18 in 10.0 mi SE 4.6 mph - N/A   Mostly Cloudy
1:17 PM 89.6 °F 98.2 °F 73.4 °F 59% 30.17 in 10.0 mi ESE 5.8 mph - N/A   Scattered Clouds
1:53 PM 89.1 °F 98.0 °F 73.9 °F 61% 30.15 in 10.0 mi Variable 3.5 mph - N/A   Mostly Cloudy
2:53 PM 89.1 °F 97.0 °F 73.0 °F 59% 30.12 in 10.0 mi Variable 3.5 mph - N/A   Clear
3:53 PM 89.1 °F 97.0 °F 73.0 °F 59% 30.09 in 10.0 mi NNW 3.5 mph - N/A   Partly Cloudy
4:26 PM 89.6 °F 98.2 °F 73.4 °F 59% 30.08 in 10.0 mi Variable 5.8 mph - N/A Thunderstorm Partly Cloudy
4:41 PM 89.6 °F 99.8 °F 75.2 °F 62% 30.09 in 10.0 mi NW 10.4 mph - N/A   Mostly Cloudy
4:53 PM 87.1 °F 96.3 °F 75.0 °F 67% 30.09 in 10.0 mi NW 11.5 mph - N/A   Overcast
5:32 PM 84.2 °F 92.3 °F 75.2 °F 74% 30.09 in 10.0 mi WNW 8.1 mph - 0.13 in Rain , Thunderstorm Light Rain
6:15 PM 73.4 °F - 69.8 °F 88% 30.16 in 1.5 mi South 19.6 mph 29.9 mph 0.14 in Rain , Thunderstorm Heavy Thunderstorms and Rain
6:20 PM 71.6 °F - 71.6 °F 100% 30.16 in 0.8 mi South 23.0 mph 32.2 mph 0.24 in Rain , Thunderstorm Heavy Thunderstorms and Rain
6:23 PM 71.6 °F - 71.6 °F 100% 30.15 in 0.8 mi SSE 21.9 mph 32.2 mph 0.31 in Rain , Thunderstorm Heavy Thunderstorms and Rain
6:31 PM 71.6 °F - 71.6 °F 100% 30.18 in - SSE 18.4 mph 27.6 mph 0.47 in Thunderstorm Thunderstorm
6:38 PM 69.8 °F - 69.8 °F 100% 30.17 in - SE 18.4 mph 26.5 mph 0.73 in Thunderstorm Thunderstorm
6:53 PM 70.0 °F - 69.1 °F 97% 30.18 in 1.5 mi ESE 12.7 mph - 1.22 in Rain , Thunderstorm Heavy Thunderstorms and Rain
7:05 PM 69.8 °F - 69.8 °F 100% 30.17 in 1.8 mi East 10.4 mph - 0.24 in Rain , Thunderstorm Heavy Thunderstorms and Rain
7:07 PM 69.8 °F - 69.8 °F 100% 30.17 in 2.5 mi East 9.2 mph - 0.26 in Rain , Thunderstorm Heavy Thunderstorms and Rain
7:14 PM 69.8 °F - 69.8 °F 100% 30.17 in 5.0 mi NNE 11.5 mph - 0.30 in Rain , Thunderstorm Heavy Thunderstorms and Rain
7:53 PM 71.1 °F - 69.1 °F 93% 30.17 in 10.0 mi ENE 11.5 mph - 0.36 in Rain Light Rain
8:42 PM 71.6 °F - 69.8 °F 94% 30.18 in 10.0 mi ENE 11.5 mph - 0.03 in   Mostly Cloudy
8:53 PM 71.1 °F - 70.0 °F 96% 30.17 in 10.0 mi ENE 10.4 mph - 0.03 in   Partly Cloudy
9:53 PM 71.1 °F - 70.0 °F 96% 30.16 in 10.0 mi NE 4.6 mph - N/A   Clear
10:53 PM 70.0 °F - 69.1 °F 97% 30.15 in 10.0 mi Calm Calm - N/A   Clear
11:53 PM 70.0 °F - 69.1 °F 97% 30.15 in 10.0 mi Calm Calm - N/A   Clear